www.pogodaiklimat.ru

Погода и климат >> Архив погоды >> Россия >> Чукотка >> Певек


АРХИВ ПОГОДЫ в Певеке

Время (UTC), дата Ветер
(напр.,м/с)
 
Видим.   Явления Облачность Т
(С)
Тd
(С)
f
(%)
Тe
(С)
Тes
(С)
Комфортность P
(гПа)
Po
(гПа)
Тmin
(С)
Tmax
(С)
R
(мм)
R24
(мм)
S
(см)
09 12.03 З 1
{2}
20 км ясно -37.0 -40.8 68 -42 -42 опасность
обморожения
1022.8 1022.0 -28.4
12 12.03 СВ 1
{2}
20 км ясно -35.7 -39.3 69 -40 -40 опасность
обморожения
1022.9 1022.1
15 12.03 штиль 0
{3}
4000 м дымка 10/0
[Ci sp]
-37.2 -40.9 68 -37 -37 опасность
обморожения
1022.9 1022.1
18 12.03 ЮЗ 1
{2}
20 км 3/0
[Ci sp]
-38.8 -42.6 67 -44 -44 опасность
обморожения
1023.1 1022.3
21 12.03 штиль 0
{2}
4000 м дымка 3/0
[Ci sp]
-36.8 -40.4 69 -37 -36 опасность
обморожения
1023.6 1022.8 -38.8 9
00 13.03 З 1
{2}
1000 м дымка 3/0
[Ci sp]
-33.3 -36.9 70 -38 -35 опасность
обморожения
1023.9 1023.1
03 13.03 СЗ 2
{2}
20 км ясно -32.6 -36.1 71 -41 -39 опасность
обморожения
1023.6 1022.8
06 13.03 СВ 1
{2}
4000 м дымка 1/0
[Ci fib]
-33.4 -36.9 71 -38 -38 опасность
обморожения
1024.0 1023.2
09 13.03 штиль 0
{2}
2000 м дымка ясно -38.3 -42.1 67 -38 -38 опасность
обморожения
1024.4 1023.6 -31.8
12 13.03 штиль 0
{1}
20 км ясно -38.8 -42.6 67 -39 -39 опасность
обморожения
1024.1 1023.3
15 13.03 СЗ 1
{1}
20 км ясно -38.6 -42.4 67 -44 -44 опасность
обморожения
1023.5 1022.7
18 13.03 СВ 1
{3}
4000 м дымка 3/0
[Ci sp]
-36.8 -40.4 69 -42 -42 опасность
обморожения
1023.0 1022.2
21 13.03 штиль 0
{3}
4000 м дымка ясно -38.6 -42.5 66 -39 -38 опасность
обморожения
1022.5 1021.7 -39.0 9
00 14.03 СВ 2
{3}
2000 м дымка ясно -33.3 -36.7 71 -41 -39 опасность
обморожения
1021.0 1020.2
03 14.03 З 1
{3}
4000 м дымка ясно -32.5 -36.0 71 -37 -35 опасность
обморожения
1019.9 1019.1
06 14.03 З 1
{2}
4000 м дымка 10/0
[Ci sp]
-33.7 -37.3 70 -38 -38 опасность
обморожения
1018.9 1018.1
09 14.03 ЮЗ 2
{3}
20 км 8/0
[Ci sp]
-36.8 -40.4 69 -45 -45 опасность
обморожения
1018.3 1017.5 -32.3
12 14.03 штиль 0
{2}
20 км 6/0
[Ci sp]
-37.1 -40.9 68 -37 -37 опасность
обморожения
1017.1 1016.3
15 14.03 З 1
{2}
20 км 8/0
[Ci sp]
-38.5 -42.4 66 -44 -44 опасность
обморожения
1015.5 1014.7
18 14.03 Ю 1
{3}
20 км 10/0
[Ci sp]
-39.2 -43.0 67 -44 -44 опасность
обморожения
1014.4 1013.6
21 14.03 штиль 0
{3}
20 км 10/0
[Ac trans Ci sp]
-35.8 -39.4 69 -36 -35 опасность
обморожения
1013.9 1013.1 -40.0 9
00 15.03 ЮЗ 3
{5}
50 км 10/0
[Ac lent Ci sp]
-32.5 -35.9 72 -43 -41 опасность
обморожения
1012.9 1012.1
03 15.03 ЮЗ 3
{6}
50 км {метель} 10/0
[Ac lent Cc]
-31.8 -35.2 72 -42 -41 опасность
обморожения
1012.6 1011.8
06 15.03 З 1
{4}
50 км {метель} 6/0
[Cc]
-33.4 -36.8 71 -38 -38 опасность
обморожения
1012.8 1012.0
09 15.03 С 1
{2}
20 км 6/0
[Ac lent Ci sp]
-35.0 -38.6 70 -40 -40 опасность
обморожения
1013.5 1012.7 -31.1
12 15.03 ЮЗ 2
{4}
4000 м дымка 10/0
[Ci fib]
-34.5 -38.1 70 -43 -43 опасность
обморожения
1013.9 1013.1
15 15.03 В 1
{2}
2000 м дымка ясно -34.2 -37.7 70 -39 -39 опасность
обморожения
1014.4 1013.6
18 15.03 ЮВ 1
{2}
4000 м дымка ясно -37.8 -41.5 68 -43 -43 опасность
обморожения
1014.8 1014.0
21 15.03 СВ 1
{2}
4000 м дымка ясно -35.4 -43.8 42 -40 -39 опасность
обморожения
1015.6 1014.8 -39.0 9
00 16.03 ЮЗ 1
{2}
20 км ясно -30.5 -33.9 72 -35 -32 опасность
обморожения
1016.0 1015.2
03 16.03 ЮЗ 2
{3}
50 км ясно -29.8 -33.1 73 -37 -36 опасность
обморожения
1015.5 1014.7
06 16.03 ЮЗ 2
{3}
50 км ясно -32.6 -36.1 71 -41 -41 опасность
обморожения
1015.8 1015.0
09 16.03 ЮЗ 2
{3}
20 км ясно -37.1 -40.9 68 -46 -46 опасность
обморожения
1016.5 1015.7 -29.3
12 16.03 ЮЗ 2
{4}
20 км 6/0
[Ci sp]
-36.5 -40.2 68 -45 -45 опасность
обморожения
1016.7 1015.9
15 16.03 ЮЗ 1
{4}
20 км 8/0
[Ci sp]
-37.1 -40.8 68 -42 -42 опасность
обморожения
1016.4 1015.6
18 16.03 В 1
{4}
20 км 4/0
[Ci sp]
-28.9 -32.2 73 -33 -33 опасность
обморожения
1016.3 1015.5
21 16.03 З 1
{5}
1000 м дымка 3/0
[Ci sp]
-29.1 -32.3 74 -33 -32 опасность
обморожения
1016.5 1015.7 -37.4 9
00 17.03 В 3
{5}
1000 м дымка 4/0
[Ci fib]
-27.9 -31.1 74 -37 -35 опасность
обморожения
1016.2 1015.4
03 17.03 СВ 3
{7}
1000 м дымка 3/0
[Ci sp]
-26.6 -29.8 74 -36 -34 опасность
обморожения
1015.6 1014.8
06 17.03 С 2
{5}
1000 м дымка 8/0
[Ci sp]
-25.9 -28.8 77 -33 -33 опасность
обморожения
1015.5 1014.7
09 17.03 С 2
{5}
1000 м дымка 8/0
[Ci sp]
-27.2 -30.3 75 -34 -34 опасность
обморожения
1015.5 1014.7 -25.6
12 17.03 С 2
{5}
10 км слаб. снег {метель} 10/0
[Ac As]
-27.4 -30.5 75 -34 -34 опасность
обморожения
1014.5 1013.7
15 17.03 С 3
{5}
4000 м слаб. снег 10/0
[As op]
-27.3 -30.3 76 -36 -36 опасность
обморожения
1013.1 1012.3
18 17.03 С 2
{5}
4000 м слаб. снег 10/0
[As op]
-27.0 -30.1 75 -34 -34 опасность
обморожения
1012.2 1011.4
21 17.03 С 2
{5}
4000 м слаб. снег 10/0
[As op]
-25.8 -28.8 76 -33 -32 опасность
обморожения
1011.5 1010.7 -27.8 0.6 9
00 18.03 СЗ 3
{6}
4000 м слаб. снег {метель} 10/0
[As op]
-25.8 -28.8 76 -35 -34 опасность
обморожения
1010.2 1009.4
03 18.03 СЗ 3
{5}
4000 м слаб. снег 10/0
[As op]
-25.9 -28.9 76 -35 -34 опасность
обморожения
1008.4 1007.6
06 18.03 СЗ 3
{5}
4000 м слаб. снег {метель} 10/0
[As op]
-24.9 -27.8 77 -33 -33 опасность
обморожения
1006.6 1005.8
09 18.03 СЗ 3
{6}
4000 м слаб. снег {метель} 10/0
[As op]
-23.5 -26.3 78 -32 -32 опасность
обморожения
1005.0 1004.3 -23.5 1
12 18.03 С 6
{9}
4000 м слаб. снег {метель} 10/0
[As op]
-22.1 -24.8 79 -34 -34 опасность
обморожения
1003.6 1002.9
15 18.03 С 6-11
{12}
4000 м слаб. снег {метель} 10/0
[As op]
-22.0 -24.8 78 -33 -33 опасность
обморожения
1002.9 1002.2
18 18.03 СЗ 7-10
{12}
1000 м сильн. снег {метель} 10/0
[As op]
-22.4 -25.2 78 -35 -35 опасность
обморожения
1002.9 1002.2
21 18.03 СЗ 8-11
{13}
2000 м снег {метель} 10/0
[As op]
-23.1 -26.0 77 -36 -36 опасность
обморожения
1004.2 1003.5 -23.5 2 6
00 19.03 СЗ 9-13
{13}
1000 м сильн. снег {метель} 10/0
[As op]
-22.7 -25.5 78 -37 -36 опасность
обморожения
1005.1 1004.4
03 19.03 СЗ 9-12
{14}
500 м сильн. снег {метель} 10/0
[As op]
-22.1 -24.8 79 -36 -36 опасность
обморожения
1005.5 1004.8
06 19.03 З 9-12
{13}
200 м сильн. снег {метель} 10/0
[As op]
-22.2 -24.8 79 -36 -36 опасность
обморожения
1006.0 1005.3

 

Местоположение метеостанции Певек (Чукотка, Россия): широта 69.70 долгота 170.20 высота над уровнем моря 5 м.

В архиве по умолчанию представлена погода в Певеке за последнюю неделю. Архивные данные за месяц целиком и за предыдущие месяцы, начиная с января 2011 года, Вы можете получить, выбрав интересующий диапазон дат из раскрывающегося списка и нажав кнопку "Ввод!".


*Определитесь, кто Вы:
робот инопланетянин человек

Внимание! Время в таблицах - всемирное. Для получения местного времени необходимо прибавить поправку, которая равна 12 ч.

Смотрите также архив погоды в соседних городах и на ближайших метеорологических станциях:

Погода на 21 км (Чукотка, Россия) (26 км)
Погода в Валькаркае (Чукотка, Россия) (50 км)
Погода на Айон Острове (Чукотка, Россия) (92 км)
Погода в Чауне (Чукотка, Россия) (93 км)
Погода в Комсомольской (Чукотка, Россия) (120 км)
Погода в Раучуе (Чукотка, Россия) (145 км)
Погода в Паляваам-Глубокой (Чукотка, Россия) (165 км)
Погода в Майской (Чукотка, Россия) (181 км)
Погода на Мысе Биллингс (Чукотка, Россия) (212 км)
Погода в Билибино (Чукотка, Россия) (238 км)

Пояснения к столбцам:

Ветер - указаны скорость ветра в м/с - средняя за 10 мин, порывы в срок и между сроками (в фигурных скобках) и направление, откуда дует ветер: С - северный, СВ - северо-восточный, В - восточный, ЮВ - юго-восточный, Ю - южный, ЮЗ - юго-западный, З - западный, СЗ - северо-западный.
Видимость - горизонтальная дальность видимости в метрах или километрах. При видимости от 1 до 10 км при отсутствии осадков обычно наблюдается дымка, при ухудшении видимости до 1 км и менее - туман. В сухую погоду видимость может ухудшаться дымом, пылью или мглою.
Явления - указаны атмосферные явления, наблюдавшиеся в срок или в последний час перед сроком; фигурными скобками обозначены явления, наблюдавшиеся между сроками (за 1-3 часа до срока); квадратными скобками обозначены град или гололедные отложения с указанием их диаметра в мм.
Облачность - указаны через наклонную черту общая и нижняя облачность в баллах и высота нижней границы облаков в метрах; квадратными скобками обозначены формы облаков: Ci - перистые, Cs - перисто-слоистые, Cc - перисто-кучевые, Ac - высококучевые, As - высокослоистые, Sc - слоисто-кучевые, Ns - слоисто-дождевые, Cu - кучевые, Cb - кучево-дождевые. Подробнее классификацию облаков см. в Атласе облаков (PDF).
T - Температура воздуха - температура, измеренная на высоте 2 м над землей.
Td - Температура точки росы - температура, при понижении до которой содержащийся в воздухе водяной пар достигнет насыщения.
f - Относительная влажность воздуха - влажноcть воздуха, измеренная на высоте 2 м над землей.
Te - Эффективная температура - температура, которую ощущает одетый по сезону человек в тени. Характеристика душности погоды. При расчете учитывается влияние влажности воздуха и скорости ветра на теплоощущения человека.
Tes - Эффективная температура на солнце - температура, которую ощущает человек, с поправкой на солнечный нагрев. Характеристика знойности погоды. Зависит от высоты солнца над горизонтом, облачности и скорости ветра. Ночью, в пасмурную погоду, а также при ветре 12 м/с и более поправка равна нулю.
P - Атмосферное давление - приведенное к уровню моря атмосферное давление.
Po - Атмосферное давление - измеренное на уровне метеостанции атмосферное давление.
Tmin - Минимальная температура - минимум температуры воздуха на высоте 2 м над землей.
Tmax - Максимальная температура - максимум температуры воздуха на высоте 2 м над землей.
R - Количество осадков - Количество выпавших осадков за период времени, мм. При наведении курсора мыши на число - период времени, за который выпало указанное количество осадков.
R24 - Количество осадков - Количество выпавших осадков за 24 часа, мм.
S - Снежный покров - Высота снежного покрова, см. При наведении курсора мыши на число - состояние снежного покрова и степень покрытия местности в баллах.